AB1IG Weather Reports


Display with metric or nautical units.
time (UTC)temp
F
wind
direction
speed
MPH
gust
MPH
rain 1hr
in
rain 24hr
in
rain mn
in
humidity
%
barometer
mb
20260505230009 51 33 3.0 12.0 0.00 0.00 0.00 75 1006.5
20260505224503 51 57 5.0 11.0 0.00 0.00 0.00 76 1006.3
20260505223003 51 27 7.0 14.0 0.00 0.00 0.00 76 1006.2
20260505221602 52 61 5.0 11.0 0.00 0.00 0.00 75 1006.0
20260505221502 52 34 6.0 11.0 0.00 0.00 0.00 76 1005.9
20260505220058 52 63 6.0 14.0 0.00 0.00 0.00 75 1005.8
20260505214555 53 39 5.0 13.0 0.00 0.00 0.00 74 1005.6
20260505213055 53 65 5.0 14.0 0.00 0.00 0.00 74 1005.1
20260505211555 53 36 6.0 19.0 0.00 0.00 0.00 75 1005.1
20260505210050 53 8 7.0 12.0 0.00 0.00 0.00 76 1004.6
20260505204553 53 65 5.0 12.0 0.00 0.00 0.00 76 1004.8
20260505203057 53 93 4.0 12.0 0.00 0.00 0.00 76 1005.9
20260505201548 53 37 6.0 12.0 0.00 0.00 0.00 76 1005.0
20260505200046 53 25 8.0 15.0 0.00 0.00 0.00 77 1004.6
20260505194603 53 49 5.0 15.0 0.00 0.00 0.00 80 1004.5
20260505193041 53 23 7.0 15.0 0.00 0.00 0.00 80 1004.3
20260505191552 53 35 5.0 11.0 0.00 0.00 0.00 80 1004.3
20260505190038 54 34 4.0 10.0 0.00 0.00 0.00 80 1004.1
20260505184536 55 64 5.0 12.0 0.00 0.00 0.00 80 1004.3
20260505183030 55 36 5.0 11.0 0.00 0.00 0.00 79 1004.1
20260505181528 55 318 4.0 14.0 0.00 0.00 0.00 78 1003.9
20260505180030 56 50 8.0 15.0 0.00 0.00 0.00 79 1003.4
20260505174521 56 54 5.0 12.0 0.00 0.00 0.00 80 1003.4
20260505173018 55 22 5.0 11.0 0.00 0.00 0.00 81 1003.1
20260505171517 56 15 5.0 14.0 0.00 0.00 0.00 82 1002.8
20260505170020 55 32 4.0 18.0 0.00 0.00 0.00 83 1002.5
20260505164512 56 25 6.0 10.0 0.00 0.00 0.00 83 1002.4
20260505163015 56 46 4.0 13.0 0.00 0.00 0.00 83 1002.1
20260505161506 57 75 6.0 13.0 0.00 0.00 0.00 82 1001.6
20260505153055 61 37 4.0 8.0 0.00 0.00 0.00 82 1000.0
20260505151549 62 65 7.0 13.0 0.00 0.00 0.00 80 999.5
20260505150105 67 41 4.0 9.0 0.00 0.00 0.00 83 998.8
20260505124542 68 36 0.0 1.0 0.00 0.00 0.00 81 997.5
20260505123030 68 36 0.0 0.0 0.00 0.00 0.00 80 997.3
20260505121546 68 34 0.0 2.0 0.00 0.00 0.00 79 997.0
20260505120025 69 59 0.0 5.0 0.00 0.00 0.00 78 996.7
20260505114523 69 282 1.0 5.0 0.00 0.00 0.00 76 995.9
20260505113021 69 131 2.0 6.0 0.00 0.00 0.00 76 995.5
20260505111526 70 117 2.0 6.0 0.00 0.00 0.00 75 995.2
20260505101513 71 25 3.0 10.0 0.00 0.00 0.00 75 994.9
20260505100018 71 203 2.0 9.0 0.00 0.00 0.00 75 994.8
20260505094514 71 249 4.0 12.0 0.00 0.00 0.00 75 994.8
20260505093022 71 176 3.0 12.0 0.00 0.00 0.00 75 994.8
20260505091514 71 240 4.0 11.0 0.00 0.00 0.00 75 994.8
20260505090006 71 233 2.0 15.0 0.00 0.00 0.00 75 994.9
20260505084504 71 271 4.0 10.0 0.00 0.00 0.00 75 995.1
20260505083002 71 297 3.0 10.0 0.00 0.00 0.00 75 995.2
20260505081559 71 280 4.0 12.0 0.00 0.00 0.00 75 995.5
20260505080057 71 190 3.0 9.0 0.00 0.00 0.00 75 995.4
20260505074555 71 198 5.0 11.0 0.00 0.00 0.00 75 995.6
20260505073059 71 353 3.0 8.0 0.00 0.00 0.00 75 995.6
20260505071551 71 238 4.0 11.0 0.00 0.00 0.00 75 996.0
20260505070048 71 252 2.0 11.0 0.00 0.00 0.00 75 996.1
20260505064544 71 270 2.0 13.0 0.00 0.00 0.00 75 996.4
20260505063049 71 246 6.0 11.0 0.00 0.00 0.00 74 996.3
20260505061547 71 313 3.0 9.0 0.00 0.00 0.00 74 996.5
20260505060040 72 241 3.0 10.0 0.00 0.00 0.00 74 996.5
20260505054555 72 29 5.0 11.0 0.00 0.00 0.00 74 996.8
20260505053044 72 146 3.0 10.0 0.00 0.00 0.00 73 996.9
20260505051543 72 155 4.0 10.0 0.00 0.00 0.00 73 997.0
20260505041544 72 159 5.0 11.0 0.00 0.00 0.00 73 997.4
20260505040030 72 174 5.0 9.0 0.00 0.00 0.00 72 997.5
20260505034530 73 146 4.0 15.0 0.00 0.00 0.00 72 997.5
20260505033029 73 212 5.0 15.0 0.00 0.00 0.00 71 997.5
20260505031534 73 144 5.0 14.0 0.00 0.00 0.00 70 997.4
20260505030027 74 210 3.0 12.0 0.00 0.00 0.00 69 997.1
20260505024526 74 240 3.0 12.0 0.00 0.00 0.00 68 997.0
20260505023026 75 12 4.0 9.0 0.00 0.00 0.00 67 997.1
20260505021525 75 22 4.0 14.0 0.00 0.00 0.00 66 996.8
20260505020125 76 266 2.0 11.0 0.00 0.00 0.00 65 996.7
20260505014523 76 264 2.0 11.0 0.00 0.00 0.00 64 996.8
20260505013022 77 336 5.0 18.0 0.00 0.00 0.00 63 996.8
20260505011520 77 198 5.0 13.0 0.00 0.00 0.00 62 996.8
20260505010019 78 65 4.0 10.0 0.00 0.00 0.00 61 997.1
20260505004519 78 238 5.0 15.0 0.00 0.00 0.00 60 996.9
20260505003024 79 103 5.0 15.0 0.00 0.00 0.00 58 997.0
20260505001518 80 255 5.0 13.0 0.00 0.00 0.00 57 997.2
20260505000016 80 119 6.0 13.0 0.00 0.00 0.00 57 997.3
20260504234514 81 190 4.0 12.0 0.00 0.00 0.00 56 997.5
20260504233014 81 113 4.0 14.0 0.00 0.00 0.00 55 997.5
20260504231512 81 224 5.0 13.0 0.00 0.00 0.00 55 997.6